Regional Weather Roundup
Issued by NWS

Home | Current Version | Previous Version | Text Only | Print | Product List | Glossary On
Versions: 1 2 3 4 5 6 7 8 9 10 11 12 13 14 15 16 17 18 19 20 21 22 23 24 25 26 27 28 29 30 31 32 33 34 35 36 37 38 39 40 41 42 43 44 45 46 47 48 49 50
961
ASUS44 KLIX 241810
RWRLA
LOUISIANA WEATHER ROUNDUP
NATIONAL WEATHER SERVICE NEW ORLEANS LA
100 PM CDT FRI OCT 24 2014

NOTE: "FAIR" INDICATES FEW OR NO CLOUDS BELOW 12,000 FEET WITH NO
      SIGNIFICANT WEATHER AND/OR OBSTRUCTIONS TO VISIBILITY.
      SKY/WX - SKY CONDITION AND SIGNIFICANT WEATHER.
      TMP - AIR TEMPERATURE.    DP   - DEWPOINT TEMPERATURE.
      RH  - RELATIVE HUMIDITY.  PRES - PRESSURE.
      HX  - HEAT INDEX.         WCI  - WIND CHILL INDEX.

*  THESE STATIONS ARE NOT NWS OR FAA STATIONS AND ARE NOT UNDER
   NWS QUALITY CONTROL.

LAZ040-048-061>063-065-066-069-241900-
SOUTHEAST LOUISIANA

CITY           SKY/WX    TMP DP  RH WIND       PRES   REMARKS
N.O. AUDUBON     N/A     75 N/A N/A MISG        N/A
                   6HR MAX TEMP:  76;

N.O. INTL ARPT MOSUNNY   72  46  39 NE7       30.09F
6HR MIN TEMP:  60; 6HR MAX TEMP:  72;

N.O. LAKEFRONT SUNNY     70  49  47 VRB3      30.09F
6HR MIN TEMP:  62; 6HR MAX TEMP:  70;

N.O. DOWNTOWN* FAIR      72  43  35 N5        30.09F
6HR MIN TEMP:  59; 6HR MAX TEMP:  72;

SLIDELL        SUNNY     74  45  35 NE5       30.07F
6HR MIN TEMP:  47; 6HR MAX TEMP:  75;

BATON ROUGE    SUNNY     73  46  38 VRB5      30.10F
6HR MIN TEMP:  47; 6HR MAX TEMP:  73;

BOOTHVILLE     SUNNY     73  53  49 NE7       30.08F
6HR MIN TEMP:  67; 6HR MAX TEMP:  74;

BELLE CHASSE   MOSUNNY   75  45  34 VRB6      30.07F
6HR MIN TEMP:  50; 6HR MAX TEMP:  75;

BOGALUSA*        N/A     75  39  27 NE5       30.10F
6HR MIN TEMP:  45; 6HR MAX TEMP:  75;

NEW ROADS*     FAIR      71  50  46 NW5       30.12F
6HR MIN TEMP:  47; 6HR MAX TEMP:  71;

GONZALES*      FAIR      72  46  39 N6        30.09F
6HR MIN TEMP:  49; 6HR MAX TEMP:  72;

HAMMOND*       SUNNY     75  41  29 NE6       30.10F
HOUMA*         SUNNY     75  48  38 N8        30.08F
PORT FOURCHON* CLEAR     73  50  43 NE5       30.11F

$$

LAZ041-044-053-054-241900-
SOUTHWEST LOUISIANA

CITY           SKY/WX    TMP DP  RH WIND       PRES   REMARKS
LAKE CHARLES   SUNNY     73  48  41 N6        30.13F
6HR MIN TEMP:  51; 6HR MAX TEMP:  74;

LAFAYETTE      SUNNY     73  50  44 N8        30.12F
6HR MIN TEMP:  50; 6HR MAX TEMP:  73;

PATTERSON      SUNNY     72  52  49 N7        30.12F
6HR MIN TEMP:  52; 6HR MAX TEMP:  73;

SALT POINT       N/A     74  49  41 E5        30.09F
6HR MIN TEMP:  55; 6HR MAX TEMP:  74;

NEW IBERIA     SUNNY     74  49  41 NE7       30.12F
6HR MIN TEMP:  50; 6HR MAX TEMP:  74;

CHENAULT AIRPK SUNNY     72  48  43 NE5       30.13F

$$

LAZ027-028-241900-
CENTRAL LOUISIANA

CITY           SKY/WX    TMP DP  RH WIND       PRES   REMARKS
FORT POLK      SUNNY     70  46  42 NE5       30.14F
6HR MIN TEMP:  51; 6HR MAX TEMP:  70;

ALEXANDRIA INT SUNNY     71  46  40 NW5       30.13F
6HR MIN TEMP:  44; 6HR MAX TEMP:  72;

ALEXANDRIA     SUNNY     70  49  47 N6        30.14F
6HR MIN TEMP:  43; 6HR MAX TEMP:  71;


$$

LAZ001-002-241900-
NORTHWEST LOUISIANA

CITY           SKY/WX    TMP DP  RH WIND       PRES   REMARKS
SHREVEPORT     MOSUNNY   73  52  47 NW3       30.15F
6HR MIN TEMP:  49; 6HR MAX TEMP:  73;

BARKSDALE AFB  SUNNY     73  47  40 N3        30.15F
6HR MIN TEMP:  47; 6HR MAX TEMP:  73;

DTN SHREVEPORT SUNNY     71  49  45 N5        30.16F
6HR MIN TEMP:  48; 6HR MAX TEMP:  71;


$$

LAZ014-016-241900-
NORTHEAST LOUISIANA

CITY           SKY/WX    TMP DP  RH WIND       PRES   REMARKS
MONROE         SUNNY     68  48  48 CALM      30.15F
6HR MIN TEMP:  44; 6HR MAX TEMP:  69;

TALLULAH       SUNNY     71  44  37 VRB6      30.14F
6HR MIN TEMP:  37; 6HR MAX TEMP:  71;


$$




USA.gov is the U.S. government's official web portal to all federal, state and local government web resources and services.